Regional Weather Roundup
Issued by NWS

Home | Current Version | Previous Version | Graphics & Text | Print | Product List | Glossary On
Versions: 1 2 3 4 5 6 7 8 9 10 11 12 13 14 15 16 17 18 19 20 21 22 23 24 25 26 27 28 29 30 31 32 33 34 35 36 37 38 39 40 41 42 43 44 45 46 47 48 49 50
000
ASUS44 KMEG 081010
RWRTN
TENNESSEE HOURLY STATE WEATHER ROUNDUP
NATIONAL WEATHER SERVICE MEMPHIS TN
400 AM CST THU DEC 08 2016

TNZ002-004-019-021-049-052-054-088>092-081100-
WEST TENNESSEE

CITY           SKY/WX    TMP DP  RH WIND       PRES   REMARKS
MEMPHIS INTL   CLOUDY    39  25  57 N12       30.37R WCI  32
NWS MEMPHIS      N/A     38 N/A N/A MISG        N/A
JACKSON        PTCLDY    36  25  64 NW6       30.36R WCI  31
DYERSBURG      CLOUDY    36  25  64 N12       30.37S WCI  27
UNION CITY     CLOUDY    34  25  69 NW10      30.35S WCI  26
PARIS          PTCLDY    30  19  64 N7        30.33S WCI  23
HUNTINGDON     PTCLDY    36  25  64 N6        30.34R WCI  31
LEXINGTON      PTCLDY    36  19  51 N7        30.32R WCI  30
$$

TNZ008-025-027-028-033-062-065-066-081100-
NORTH MIDDLE TENNESSEE

CITY           SKY/WX    TMP DP  RH WIND       PRES   REMARKS
NASHVILLE      CLOUDY    36  20  52 NW8       30.31R WCI  30
PORTLAND       PTCLDY    32  23  69 NW7       30.29R WCI  26
CLARKSVILLE    PTCLDY    33  22  63 NW6       30.33R WCI  28
SMYRNA         CLOUDY    36  23  59 N12       30.31R WCI  28
GALLATIN       CLOUDY    36  21  55 NW8       30.32R WCI  29
CROSSVILLE     CLOUDY    33  22  63 N6        30.20R WCI  28
$$

TNZ061-075-076-078-094-096-097-081100-
SOUTH MIDDLE TENNESSEE

CITY           SKY/WX    TMP DP  RH WIND       PRES   REMARKS
FAYETTEVILLE   CLOUDY    37  27  65 N8        30.24S WCI  31
TULLAHOMA      MOCLDY    34  25  69 N7        30.25R WCI  28
WINCHESTER     MOCLDY    36  27  69 N8        30.25R WCI  29
MCMINNVILLE    MOCLDY    36  21  55 NW7         N/A  WCI  30
COLUMBIA       CLOUDY    37  23  56 N7        30.28R WCI  32
SHELBYVILLE    MOCLDY    37  25  60 N10       30.28R WCI  30
$$

TNZ017-018-042-046-047-081100-
NORTHEAST TENNESSEE

CITY           SKY/WX    TMP DP  RH WIND       PRES   REMARKS
TRI CITIES     CLOUDY    40  31  70 W5        30.12R
ELIZABETHTON   DRIZZLE   39  32  75 W6        30.10R WCI  35
$$

TNZ012-013-036-069-073-074-081100-
CENTRAL EAST TENNESSEE

CITY           SKY/WX    TMP DP  RH WIND       PRES   REMARKS
KNOXVILLE      CLOUDY    41  25  53 N7        30.18R
OAK RIDGE      CLOUDY    41  24  51 N3        30.20R
DOWNTOWN KNOXV CLOUDY    41  25  52 CALM      30.19R
GATLINBURG     CLOUDY    39  27  60 W6        30.18R WCI  35
MORRISTOWN     CLOUDY    39  25  56 NW9       30.15R WCI  33
JACKSBORO      CLOUDY    37  21  52 VRB6G12   30.22R WCI  33
$$

TNZ083-085-099-081100-
SOUTHEAST TENNESSEE

CITY           SKY/WX    TMP DP  RH WIND       PRES   REMARKS
CHATTANOOGA    CLOUDY    42  28  57 NW10      30.21R
$$

SKY/WX REPORTED AS FAIR MEANS FEW OR NO CLOUDS BELOW
12 THOUSAND FEET.





USA.gov is the U.S. government's official web portal to all federal, state and local government web resources and services.